Weather History for EGLL - October, 2013

Change the Weather History Date:

Saturday, October 26, 2013

  Actual Average Record
Temperature  
Mean Temperature 60 °F -  
Max Temperature 63 °F 51 °F 68 °F (2006)
Min Temperature 57 °F 40 °F 32 °F (1997)
Degree Days  
Heating Degree Days 5    
Growing Degree Days 10 (Base 50)    
Moisture  
Dew Point 54 °F    
Average Humidity 82    
Maximum Humidity 94    
Minimum Humidity 69    
Precipitation  
Precipitation 0.00 in - - ()
Sea Level Pressure  
Sea Level Pressure 29.65 in    
Wind  
Wind Speed 13 mph ()    
Max Wind Speed 23 mph    
Max Gust Speed 31 mph    
Visibility 7.2 miles    
Events Rain    
Averages and records for this station are not official NWS values.
T = Trace of Precipitation, MM = Missing Value Source: Averaged Metar Reports

Daily Weather History Graph

Daily Weather History Graph

Search for Another Location

Airport or City:

Trip Planner

Search our weather history database for the weather conditions in past years. The results will help you decide how hot, cold, wet, or windy it might be!

Date:

Astronomy

Oct. 26, 2013 Rise Set
Actual Time 7:44 AM BST 5:45 PM BST
Civil Twilight 7:10 AM BST 6:20 PM BST
Nautical Twilight 6:31 AM BST 6:59 PM BST
Astronomical Twilight 5:52 AM BST 7:37 PM BST
Moon 11:42 PM BST (10/26) 1:59 PM BST (10/26)
Length of Visible Light 11h 10m
Length of Day
10h 01m
Waning Gibbous, 55% of the Moon is Illuminated
Oct 26
Waning Gibbous
Oct 27
Last Quarter
Nov 3
New
Nov 10
First Quarter
Nov 17
Full

Hourly Weather History & Observations

Time (BST) Temp. Dew Point Humidity Pressure Visibility Wind Dir Wind Speed Gust Speed Precip Events Conditions
12:20 AM 60.8 °F 53.6 °F 77% 29.71 in 6.2 mi SSW 10.4 mph - N/A   Scattered Clouds
12:50 AM 60.8 °F 53.6 °F 77% 29.71 in 6.2 mi SSW 11.5 mph - N/A   Partly Cloudy
1:00 AM 60 °F 54 °F 76% 29.71 in 13 mi SSW 17.3 mph - -  
1:20 AM 60.8 °F 53.6 °F 77% 29.71 in 6.2 mi SW 16.1 mph - N/A   Partly Cloudy
1:50 AM 59.0 °F 53.6 °F 82% 29.71 in 6.2 mi SSW 11.5 mph - N/A   Partly Cloudy
2:20 AM 59.0 °F 53.6 °F 82% 29.71 in 6.2 mi SW 8.1 mph - N/A   Unknown
2:50 AM 59.0 °F 53.6 °F 82% 29.71 in 6.2 mi SW 10.4 mph - N/A   Scattered Clouds
3:20 AM 59.0 °F 53.6 °F 82% 29.71 in 6.2 mi SW 9.2 mph - N/A   Scattered Clouds
3:50 AM 59.0 °F 53.6 °F 82% 29.68 in 6.2 mi SSW 11.5 mph - N/A   Mostly Cloudy
4:00 AM 59 °F 54 °F 77% 29.70 in 14 mi SSW 13.8 mph - -  
4:20 AM 59.0 °F 53.6 °F 82% 29.68 in 6.2 mi SSW 10.4 mph - N/A   Partly Cloudy
4:50 AM 59.0 °F 53.6 °F 82% 29.68 in 6.2 mi SSW 9.2 mph - N/A   Partly Cloudy
5:20 AM 59.0 °F 53.6 °F 82% 29.68 in 6.2 mi SSW 12.7 mph - N/A   Mostly Cloudy
5:50 AM 59.0 °F 53.6 °F 82% 29.68 in 6.2 mi SSW 11.5 mph - N/A   Scattered Clouds
6:20 AM 59.0 °F 53.6 °F 82% 29.68 in 6.2 mi SSW 12.7 mph - N/A   Scattered Clouds
6:50 AM 59.0 °F 53.6 °F 82% 29.68 in 6.2 mi SSW 13.8 mph - N/A   Scattered Clouds
7:00 AM 60 °F 54 °F 75% 29.68 in 12 mi South 15.0 mph - - Rain Drizzle
7:20 AM 59.0 °F 55.4 °F 88% 29.68 in 6.2 mi SSW 13.8 mph - N/A   Scattered Clouds
7:50 AM 59.0 °F 55.4 °F 88% 29.68 in 6.2 mi SSW 13.8 mph - N/A   Mostly Cloudy
8:20 AM 59.0 °F 55.4 °F 88% 29.68 in 6.2 mi SSW 12.7 mph - N/A   Light Drizzle
8:50 AM 59.0 °F 55.4 °F 88% 29.68 in 6.2 mi SSW 11.5 mph - N/A   Scattered Clouds
9:20 AM 60.8 °F 55.4 °F 82% 29.68 in 6.2 mi SW 17.3 mph - N/A   Scattered Clouds
9:50 AM 62.6 °F 53.6 °F 72% 29.71 in 6.2 mi SW 20.7 mph - N/A   Partly Cloudy
10:00 AM 61 °F 54 °F 71% 29.70 in 19 mi SW 18.4 mph - -  
10:20 AM 62.6 °F 53.6 °F 72% 29.71 in 6.2 mi SW 19.6 mph - N/A   Scattered Clouds
10:50 AM 62.6 °F 55.4 °F 77% 29.71 in 6.2 mi SW 17.3 mph - N/A   Mostly Cloudy
11:20 AM 62.6 °F 55.4 °F 77% 29.68 in 6.2 mi SW 15.0 mph - N/A   Mostly Cloudy
11:50 AM 62.6 °F 55.4 °F 77% 29.68 in 6.2 mi SW 18.4 mph - N/A   Mostly Cloudy
12:20 PM 60.8 °F 55.4 °F 82% 29.68 in 6.2 mi SW 17.3 mph - N/A   Mostly Cloudy
12:50 PM 60.8 °F 57.2 °F 88% 29.68 in 6.2 mi SW 17.3 mph - N/A   Scattered Clouds
1:00 PM 60 °F 55 °F 80% 29.70 in 28 mi SW 20.7 mph - - Rain Drizzle
1:20 PM 60.8 °F 55.4 °F 82% 29.68 in 6.2 mi SW 23.0 mph - N/A Rain Light Rain Showers
1:50 PM 60.8 °F 55.4 °F 82% 29.68 in 3.1 mi WSW 16.1 mph - N/A Rain Light Rain Showers
2:20 PM 59.0 °F 57.2 °F 94% 29.68 in 6.2 mi SW 15.0 mph - N/A Rain Light Rain Showers
2:50 PM 59.0 °F 57.2 °F 94% 29.68 in 3.7 mi WSW 17.3 mph - N/A Rain Light Rain Showers
3:20 PM 59.0 °F 57.2 °F 94% 29.68 in 6.2 mi SW 12.7 mph - N/A   Mostly Cloudy
3:50 PM 60.8 °F 57.2 °F 88% 29.65 in 6.2 mi SW 11.5 mph - N/A   Mostly Cloudy
4:00 PM 59 °F 56 °F 88% 29.67 in 22 mi SW 11.5 mph - - Rain Rain
4:20 PM 59.0 °F 55.4 °F 88% 29.65 in 6.2 mi SW 18.4 mph - N/A   Scattered Clouds
4:50 PM 59.0 °F 55.4 °F 88% 29.65 in 6.2 mi SW 15.0 mph - N/A   Mostly Cloudy
5:20 PM 59.0 °F 53.6 °F 82% 29.65 in 6.2 mi SW 13.8 mph - N/A   Mostly Cloudy
5:50 PM 59.0 °F 55.4 °F 88% 29.65 in 6.2 mi SSW 12.7 mph - N/A   Scattered Clouds
6:20 PM 59.0 °F 55.4 °F 88% 29.62 in 6.2 mi SSW 11.5 mph 24.2 mph N/A   Mostly Cloudy
6:50 PM 59.0 °F 53.6 °F 82% 29.62 in 6.2 mi SSW 12.7 mph - N/A   Scattered Clouds
7:00 PM 59 °F 54 °F 78% 29.62 in 18 mi SSW 11.5 mph - - Rain Drizzle
7:20 PM 59.0 °F 53.6 °F 82% 29.59 in 6.2 mi SSW 15.0 mph - N/A   Scattered Clouds
7:50 PM 59.0 °F 53.6 °F 82% 29.59 in 6.2 mi SSW 15.0 mph - N/A   Scattered Clouds
8:20 PM 57.2 °F 53.6 °F 88% 29.59 in 6.2 mi SSW 11.5 mph - N/A   Partly Cloudy
8:50 PM 57.2 °F 51.8 °F 82% 29.56 in 6.2 mi SSW 12.7 mph - N/A   Partly Cloudy
9:20 PM 59.0 °F 51.8 °F 77% 29.56 in 6.2 mi SSW 15.0 mph - N/A   Partly Cloudy
9:50 PM 59.0 °F 51.8 °F 77% 29.53 in 6.2 mi SSW 16.1 mph - N/A   Partly Cloudy
10:00 PM 60 °F 53 °F 69% 29.55 in 19 mi SSW 17.3 mph - -  
10:20 PM 60.8 °F 53.6 °F 77% 29.53 in 6.2 mi SSW 18.4 mph - N/A   Partly Cloudy
10:50 PM 60.8 °F 53.6 °F 77% 29.50 in 6.2 mi SSW 18.4 mph 31.1 mph N/A Rain Light Rain
11:20 PM 59.0 °F 53.6 °F 82% 29.50 in 6.2 mi SSW 18.4 mph 31.1 mph N/A Rain Light Rain
11:50 PM 59.0 °F 55.4 °F 88% 29.50 in 5.6 mi SSW 17.3 mph - N/A Rain Light Rain